Location: Deurze
(52.9838°N, 6.6090°E)
Time: 19:12:39
(UTC+00:00)

Cosmos 2082 Rocket - Pass Details

Date: 11 March 2026
Orbit: 831 x 854 km, 71.0° (Epoch: 20 April)

Event Time Altitude Azimuth Distance (km) Brightness Sun altitude
Rises 18:23:18 0° 326° (NNW) 3,433 6.0 -8.8°
Reaches altitude 10° 18:25:47 10° 323° (NW) 2,495 5.3 -9.1°
Maximum altitude 18:31:25 60° 245° (WSW) 977 2.9 -10.0°
Drops below altitude 10° 18:37:00 10° 167° (SSE) 2,479 4.4 -10.8°
Sets 18:39:28 0° 164° (SSE) 3,409 5.1 -11.2°
